GW3543 Weather Reports


Display with metric or nautical units.
time (UTC)temp
F
wind
direction
speed
MPH
gust
MPH
rain 1hr
in
rain 24hr
in
rain mn
in
humidity
%
barometer
mb
20260504185304 85 109 2.0 3.0 0.00 0.00 0.00 42 1016.4
20260504184759 85 149 3.0 4.0 0.00 0.00 0.00 45 1016.4
20260504184255 86 197 0.0 0.0 0.00 0.00 0.00 43 1016.6
20260504183751 84 99 3.0 3.0 0.00 0.00 0.00 43 1016.8
20260504183248 84 168 0.0 0.0 0.00 0.00 0.00 45 1016.8
20260504182747 83 290 3.0 3.0 0.00 0.00 0.00 44 1016.9
20260504182243 84 161 0.0 0.0 0.00 0.00 0.00 45 1017.1
20260504181741 85 337 3.0 4.0 0.00 0.00 0.00 43 1017.0
20260504181238 86 193 4.0 6.0 0.00 0.00 0.00 42 1017.3
20260504180737 85 166 0.0 0.0 0.00 0.00 0.00 43 1017.4
20260504180236 86 152 1.0 1.0 0.00 0.00 0.00 44 1017.5
20260504175733 86 174 1.0 1.0 0.00 0.00 0.00 42 1017.4
20260504175229 84 171 2.0 2.0 0.00 0.00 0.00 45 1017.5
20260504174727 86 186 3.0 4.0 0.00 0.00 0.00 43 1017.5
20260504174225 82 164 1.0 1.0 0.00 0.00 0.00 45 1017.6
20260504173721 86 104 2.0 3.0 0.00 0.00 0.00 45 1017.6
20260504173218 85 172 2.0 3.0 0.00 0.00 0.00 45 1017.6
20260504172715 86 191 1.0 1.0 0.00 0.00 0.00 42 1017.7
20260504172211 85 326 3.0 6.0 0.00 0.00 0.00 44 1017.7
20260504171708 85 33 0.0 2.0 0.00 0.00 0.00 43 1017.7
20260504171205 86 113 1.0 2.0 0.00 0.00 0.00 42 1017.7
20260504170701 85 137 3.0 3.0 0.00 0.00 0.00 46 1017.7
20260504170159 84 178 2.0 2.0 0.00 0.00 0.00 46 1017.8
20260504160117 82 173 2.0 2.0 0.00 0.00 0.00 48 1018.5
20260504151045 79 175 0.0 1.0 0.00 0.00 0.00 55 1018.7
20260504150543 79 234 3.0 4.0 0.00 0.00 0.00 52 1018.7
20260504141009 76 126 5.0 8.0 0.00 0.00 0.00 63 1018.6
20260504140505 76 112 6.0 10.0 0.00 0.00 0.00 63 1018.5
20260504130430 73 246 3.0 3.0 0.00 0.00 0.00 71 1018.4
20260504110317 63 173 0.0 0.0 0.00 0.00 0.00 88 1017.6
20260504100234 63 241 1.0 3.0 0.00 0.00 0.00 88 1017.4
20260504081627 66 203 2.0 2.0 0.00 0.00 0.00 84 1017.1
20260504081123 66 184 2.0 2.0 0.00 0.00 0.00 84 1017.4
20260504080620 66 198 2.0 2.0 0.00 0.00 0.00 84 1017.3
20260504080116 66 176 0.0 0.0 0.00 0.00 0.00 85 1017.2
20260504050432 69 167 0.0 0.0 0.00 0.00 0.00 79 1018.0
20260504045930 69 120 2.0 3.0 0.00 0.00 0.00 79 1018.0
20260504045425 69 162 2.0 2.0 0.00 0.00 0.00 79 1018.0
20260504044922 69 219 2.0 3.0 0.00 0.00 0.00 79 1017.9
20260504044419 69 174 1.0 1.0 0.00 0.00 0.00 79 1018.3
20260504043917 69 178 0.0 1.0 0.00 0.00 0.00 79 1018.5
20260504043413 69 181 0.0 1.0 0.00 0.00 0.00 79 1018.4
20260504042911 69 189 0.0 1.0 0.00 0.00 0.00 78 1018.5
20260504042407 69 163 1.0 1.0 0.00 0.00 0.00 78 1018.8
20260504041904 69 163 1.0 1.0 0.00 0.00 0.00 78 1018.6
20260504041400 69 175 0.0 0.0 0.00 0.00 0.00 78 1018.7
20260504040855 69 179 0.0 1.0 0.00 0.00 0.00 78 1018.7
20260504040354 69 168 0.0 0.0 0.00 0.00 0.00 79 1018.9
20260504035849 69 175 0.0 0.0 0.00 0.00 0.00 79 1019.0
20260504035348 69 152 0.0 0.0 0.00 0.00 0.00 78 1018.8
20260504034844 70 169 2.0 2.0 0.00 0.00 0.00 78 1018.9
20260504034341 70 168 1.0 1.0 0.00 0.00 0.00 78 1018.9
20260504033838 70 179 0.0 0.0 0.00 0.00 0.00 78 1018.8
20260504033336 70 244 1.0 2.0 0.00 0.00 0.00 78 1018.8
20260504032832 70 179 1.0 1.0 0.00 0.00 0.00 77 1018.8
20260504032330 71 218 2.0 2.0 0.00 0.00 0.00 77 1018.8
20260504031827 71 188 0.0 0.0 0.00 0.00 0.00 77 1018.7
20260504031324 71 129 0.0 1.0 0.00 0.00 0.00 77 1018.7
20260504030820 71 156 0.0 0.0 0.00 0.00 0.00 77 1018.7
20260504030318 71 173 0.0 0.0 0.00 0.00 0.00 77 1018.7
20260504025813 71 176 0.0 0.0 0.00 0.00 0.00 77 1018.6
20260504025311 71 168 0.0 0.0 0.00 0.00 0.00 76 1018.6
20260504024807 71 175 0.0 1.0 0.00 0.00 0.00 75 1018.5
20260504024304 71 183 2.0 2.0 0.00 0.00 0.00 75 1018.4
20260504023800 71 164 0.0 1.0 0.00 0.00 0.00 74 1018.4
20260504023257 72 264 2.0 3.0 0.00 0.00 0.00 74 1018.3
20260504022753 72 158 1.0 1.0 0.00 0.00 0.00 73 1018.4
20260504022249 72 163 0.0 0.0 0.00 0.00 0.00 73 1018.4
20260504021746 72 43 2.0 4.0 0.00 0.00 0.00 73 1018.2
20260504021244 72 174 2.0 2.0 0.00 0.00 0.00 73 1018.1
20260504020740 72 170 1.0 2.0 0.00 0.00 0.00 73 1018.1
20260504020237 72 167 2.0 3.0 0.00 0.00 0.00 73 1018.2
20260504015733 72 175 0.0 0.0 0.00 0.00 0.00 73 1018.2
20260504015230 72 183 1.0 1.0 0.00 0.00 0.00 71 1017.9
20260504014725 72 174 1.0 2.0 0.00 0.00 0.00 70 1017.9
20260504014222 72 177 1.0 1.0 0.00 0.00 0.00 70 1017.8
20260504013720 72 177 0.0 0.0 0.00 0.00 0.00 70 1017.8
20260504013218 71 179 0.0 0.0 0.00 0.00 0.00 69 1017.9
20260504012714 71 176 0.0 0.0 0.00 0.00 0.00 70 1017.6
20260504012212 71 176 0.0 0.0 0.00 0.00 0.00 70 1017.9
20260504011709 72 182 0.0 0.0 0.00 0.00 0.00 70 1017.5
20260504011205 72 183 0.0 0.0 0.00 0.00 0.00 69 1017.5
20260504010701 72 182 0.0 0.0 0.00 0.00 0.00 69 1017.4
20260504010157 72 182 0.0 0.0 0.00 0.00 0.00 69 1017.4
20260504005654 72 182 1.0 1.0 0.00 0.00 0.00 69 1017.2
20260504005151 72 182 0.0 1.0 0.00 0.00 0.00 69 1017.1
20260504004649 72 182 1.0 2.0 0.00 0.00 0.00 69 1017.2
20260504004145 73 182 0.0 0.0 0.00 0.00 0.00 68 1017.2
20260504003642 73 184 0.0 0.0 0.00 0.00 0.00 67 1017.0
20260504003138 73 182 0.0 0.0 0.00 0.00 0.00 67 1017.1
20260504002635 73 183 2.0 2.0 0.00 0.00 0.00 66 1017.0
20260504002133 73 180 1.0 1.0 0.00 0.00 0.00 67 1016.8
20260504001631 74 180 0.0 0.0 0.00 0.00 0.00 66 1016.7
20260504001126 74 179 0.0 0.0 0.00 0.00 0.00 64 1016.6
20260504000624 75 174 0.0 1.0 0.00 0.00 0.00 63 1016.6
20260504000121 75 175 0.0 0.0 0.00 0.00 0.00 61 1016.7
20260503235620 76 175 0.0 0.0 0.00 0.00 0.00 60 1016.4
20260503235116 77 173 0.0 0.0 0.00 0.00 0.00 59 1016.4
20260503234614 77 173 0.0 0.0 0.00 0.00 0.00 59 1016.4
20260503234112 78 175 0.0 1.0 0.00 0.00 0.00 57 1016.3
20260503233608 79 178 0.0 0.0 0.00 0.00 0.00 57 1016.6
20260503233059 80 178 0.0 0.0 0.00 0.00 0.00 54 1016.5
20260503232556 80 176 0.0 1.0 0.00 0.00 0.00 55 1016.5
20260503232053 80 168 0.0 0.0 0.00 0.00 0.00 53 1016.6
20260503231551 80 172 2.0 2.0 0.00 0.00 0.00 53 1016.4
20260503231048 80 190 0.0 0.0 0.00 0.00 0.00 53 1016.2
20260503230544 80 174 1.0 1.0 0.00 0.00 0.00 52 1016.3
20260503230042 79 173 0.0 0.0 0.00 0.00 0.00 54 1016.4
20260503225538 80 280 2.0 3.0 0.00 0.00 0.00 53 1016.6
20260503225033 79 170 1.0 1.0 0.00 0.00 0.00 53 1016.5
20260503224531 79 173 0.0 1.0 0.00 0.00 0.00 52 1016.3
20260503224029 79 175 0.0 0.0 0.00 0.00 0.00 53 1016.2
20260503223527 79 159 0.0 1.0 0.00 0.00 0.00 53 1016.4
20260503223022 79 198 1.0 1.0 0.00 0.00 0.00 52 1016.3
20260503222520 79 177 0.0 0.0 0.00 0.00 0.00 52 1016.4
20260503222018 79 86 2.0 2.0 0.00 0.00 0.00 54 1016.3
20260503221516 79 177 1.0 2.0 0.00 0.00 0.00 54 1016.4
20260503221013 79 161 1.0 2.0 0.00 0.00 0.00 54 1016.2
20260503220509 79 214 1.0 1.0 0.00 0.00 0.00 52 1016.5
20260503220006 79 205 2.0 2.0 0.00 0.00 0.00 53 1016.6
20260503215503 79 168 0.0 0.0 0.00 0.00 0.00 54 1016.5
20260503215000 79 184 3.0 3.0 0.00 0.00 0.00 53 1016.3
20260503214458 79 177 1.0 1.0 0.00 0.00 0.00 55 1016.5
20260503213955 80 17 1.0 1.0 0.00 0.00 0.00 53 1016.6
20260503213453 80 197 3.0 3.0 0.00 0.00 0.00 54 1016.3
20260503212949 79 206 2.0 3.0 0.00 0.00 0.00 53 1016.6
20260503212447 80 171 1.0 1.0 0.00 0.00 0.00 54 1016.4
20260503211944 80 234 2.0 2.0 0.00 0.00 0.00 53 1016.7
20260503211441 80 273 1.0 2.0 0.00 0.00 0.00 54 1016.4
20260503210937 80 216 2.0 2.0 0.00 0.00 0.00 55 1016.5
20260503210433 80 203 4.0 4.0 0.00 0.00 0.00 53 1016.5
20260503205928 80 275 5.0 6.0 0.00 0.00 0.00 53 1016.5
20260503205426 79 179 2.0 3.0 0.00 0.00 0.00 57 1016.8
20260503204922 80 201 3.0 3.0 0.00 0.00 0.00 55 1016.6
20260503204419 80 164 1.0 2.0 0.00 0.00 0.00 58 1016.4
20260503203916 79 84 2.0 2.0 0.00 0.00 0.00 58 1016.7
20260503203413 80 164 3.0 4.0 0.00 0.00 0.00 55 1016.9
20260503202910 81 172 1.0 2.0 0.00 0.00 0.00 55 1016.7
20260503202409 80 170 1.0 3.0 0.00 0.00 0.00 56 1016.9
20260503201907 79 164 1.0 2.0 0.00 0.00 0.00 58 1016.9
20260503201403 80 36 1.0 2.0 0.00 0.00 0.00 58 1017.0
20260503200901 81 207 3.0 3.0 0.00 0.00 0.00 56 1017.1
20260503200356 81 242 5.0 7.0 0.00 0.00 0.00 56 1017.3
20260503195854 79 164 1.0 2.0 0.00 0.00 0.00 60 1017.3
20260503195350 80 63 3.0 3.0 0.00 0.00 0.00 60 1017.4
20260503194848 78 154 1.0 2.0 0.00 0.00 0.00 62 1017.4
20260503194343 78 181 1.0 1.0 0.00 0.00 0.00 62 1017.5
20260503193840 79 143 2.0 2.0 0.00 0.00 0.00 60 1017.6
20260503193336 78 167 2.0 2.0 0.00 0.00 0.00 64 1017.5
20260503192832 78 112 1.0 1.0 0.00 0.00 0.00 60 1017.7
20260503192327 79 33 2.0 3.0 0.00 0.00 0.00 58 1017.7
20260503191824 79 213 4.0 4.0 0.00 0.00 0.00 60 1017.6
20260503191321 78 139 1.0 1.0 0.00 0.00 0.00 61 1017.9
20260503190817 77 158 0.0 0.0 0.00 0.00 0.00 63 1018.2
20260503190314 79 172 0.0 0.0 0.00 0.00 0.00 61 1018.2
20260503185811 79 102 1.0 1.0 0.00 0.00 0.00 58 1018.3